This is the latest recevied weather packets stored in our database for station/object SP3ZBZ-13. If no packets are shown the sender has not sent any weather packets the latest 10 day(s).
| Time | Temp. | Humidity | Pressure | Rain* | Wind** | Luminosity | Snow |
|---|---|---|---|---|---|---|---|
| 1777946593 | 10.56° C | 86% | 1007.5 hPa | - | - | - | - |
| 1777945691 | 10.56° C | 86% | 1007.5 hPa | - | - | - | - |
| 1777944791 | 11.11° C | 84% | 1007.6 hPa | - | - | - | - |
| 1777943890 | 11.11° C | 83% | 1007.8 hPa | - | - | - | - |
| 1777942989 | 11.67° C | 82% | 1007.6 hPa | - | - | - | - |
| 1777942088 | 11.67° C | 82% | 1007.6 hPa | - | - | - | - |
| 1777941187 | 11.67° C | 81% | 1007.8 hPa | - | - | - | - |
| 1777940286 | 11.67° C | 81% | 1007.8 hPa | - | - | - | - |
| 1777939385 | 11.67° C | 82% | 1007.9 hPa | - | - | - | - |
| 1777938486 | 12.22° C | 81% | 1007.7 hPa | - | - | - | - |
| 1777937583 | 12.22° C | 79% | 1007.8 hPa | - | - | - | - |
| 1777936682 | 12.78° C | 78% | 1007.8 hPa | - | - | - | - |
| 1777935781 | 13.33° C | 76% | 1007.9 hPa | - | - | - | - |
| 1777934880 | 13.33° C | 76% | 1007.9 hPa | - | - | - | - |
| 1777933980 | 13.33° C | 75% | 1008.1 hPa | - | - | - | - |
| 1777933079 | 13.89° C | 75% | 1008 hPa | - | - | - | - |
| 1777932178 | 13.89° C | 74% | 1008 hPa | - | - | - | - |
| 1777931277 | 14.44° C | 73% | 1008.1 hPa | - | - | - | - |
| 1777930376 | 15° C | 73% | 1008.1 hPa | - | - | - | - |
| 1777929475 | 15.56° C | 72% | 1008.1 hPa | - | - | - | - |
| 1777928574 | 15.56° C | 72% | 1008 hPa | - | - | - | - |
| 1777927673 | 16.11° C | 71% | 1008 hPa | - | - | - | - |
| 1777926772 | 16.11° C | 71% | 1008 hPa | - | - | - | - |
| 1777925872 | 16.67° C | 70% | 1007.9 hPa | - | - | - | - |
| 1777924970 | 16.67° C | 70% | 1007.8 hPa | - | - | - | - |
* Rain since midnight (hover to see other rain measurements)
** Current wind speed in m/s (hover to see current wind gust speed)